Regional Weather Roundup
Issued by NWS

Home | Current Version | Previous Version | Text Only | Print | Product List | Glossary On
Versions: 1 2 3 4 5 6 7 8 9 10 11 12 13 14 15 16 17 18 19 20 21 22 23 24 25 26 27 28 29 30 31 32 33 34 35 36 37 38 39 40 41 42 43 44 45 46 47 48 49 50
000
ASUS43 KMKX 060911
RWRWI

WISCONSIN REGIONAL WEATHER ROUNDUP
NATIONAL WEATHER SERVICE MILWAUKEE/SULLIVAN WI
300 AM CST TUE DEC 06 2016

NOTE: "FAIR" INDICATES FEW OR NO CLOUDS BELOW 12,000 FEET WITH NO
SIGNIFICANT WEATHER AND/OR OBSTRUCTIONS TO VISIBILITY.

WIZ001-002-006>008-014>016-023>028-061000-
NORTHWEST WISCONSIN

CITY           SKY/WX    TMP DP  RH WIND       PRES   REMARKS
SUPERIOR ARPT  CLOUDY    38  34  85 S13G21    29.59S WCI  30
ASHLAND        CLOUDY    37  31  78 MISG      29.65F
HAYWARD        MIX PCPN  35  31  85 S14G21    29.66S WCI  26
SIREN          CLOUDY    35  29  79 SW10G18   29.65R WCI  27
CUMBERLAND     CLOUDY    32  32 100 S14       29.68R FOG     WCI  22
RICE LAKE      LGT SNOW  33  32  96 S10       29.70S WCI  25
CHETEK         LGT SNOW  33  32  97 S9G16     29.70S WCI  25
LADYSMITH      LGT SNOW  33  32  96 S9        29.72F WCI  25
EAU CLAIRE     LGT SNOW  33  32  96 S12       29.73S VSB 3/4 WCI  24
MENOMONIE      LGT SNOW  33  33 100 S13       29.73S WCI  24
NEW RICHMOND   CLOUDY    33  30  86 SW14G22   29.69S WCI  24
OSCEOLA        CLOUDY    34  28  80 SW15      29.72S WCI  24
$$

WIZ003>005-009-010-017-018-061000-
NORTH CENTRAL WISCONSIN

CITY           SKY/WX    TMP DP  RH WIND       PRES   REMARKS
MANITOWISH WTR CLOUDY    33  28  83 S12G20    29.70F WCI  24
ARBOR VITAE    PTCLDY    34  29  81 S12G17    29.72F WCI  25
WOODRUFF       PTCLDY    34  29  81 S12G17    29.72F WCI  25
RHINELANDER    PTCLDY    31  28  89 SE7G18    29.75F WCI  24
EAGLE RIVER    PTCLDY    31  29  90 SE8       29.74F WCI  24
LAND O LAKES   CLOUDY    32  30  91 SE8       29.75F WCI  25
PHILLIPS       CLOUDY    32  29  88 S14       29.70F WCI  22
TOMAHAWK       PTCLDY    30  27  90 S3        29.75F
MEDFORD        CLOUDY    30  28  94 S10       29.74S FOG     WCI  21
MERRILL        PTCLDY    31  29  94 SE7       29.77F WCI  24
$$

WIZ029-030-035-036-043>047-061000-
CENTRAL WISCONSIN

CITY           SKY/WX    TMP DP  RH WIND       PRES   REMARKS
WAUSAU         CLOUDY    30  28  92 SE6       29.77F WCI  24
MOSINEE        CLOUDY    30  30 100 SE8       29.79F FOG     WCI  23
MARSHFIELD     CLOUDY    31  28  89 S18       29.76S FOG     WCI  19
STEVENS POINT  CLOUDY    29  29  99 SE6       29.81F WCI  23
WAUPACA        CLOUDY    34  31  90 SE9       29.84F FOG     WCI  26
WAUTOMA        CLOUDY    31  29  92 SE10      29.83F WCI  22
WISC RAPIDS    CLOUDY    31  30  96 SE7       29.80F WCI  24
CAMP DOUGLAS   CLOUDY    32  28  86 S7        29.81S WCI  26
$$

WIZ011>013-019>022-031-037>040-048>050-061000-
NORTHEAST WISCONSIN

CITY           SKY/WX    TMP DP  RH WIND       PRES   REMARKS
ANTIGO         CLOUDY    29  29 100 SE15      29.78F FOG     WCI  18
SHAWANO        CLOUDY    35  33  91 SE3       29.85F FOG
OCONTO         CLOUDY    38  35  88 S10G18    29.85F WCI  32
STURGEON BAY   CLOUDY    39  36  89 S14       29.87F WCI  31
GREEN BAY      CLOUDY    38  36  92 S8        29.86F WCI  32
MANITOWOC      CLOUDY    40  35  83 S10       29.88F WCI  33
APPLETON       CLOUDY    34  34 100 SE16      29.82F WCI  23
CLINTONVILLE   CLOUDY    32  32 100 S6        29.84F FOG     WCI  26
OSHKOSH        CLOUDY    34  31  88 S8        29.84F FOG     WCI  27
$$

WIZ032>034-041-042-053>061-061000-
SOUTHWEST WISCONSIN

CITY           SKY/WX    TMP DP  RH WIND       PRES   REMARKS
LA CROSSE      CLOUDY    36  31  82 S12       29.80R WCI  28
SPARTA         CLOUDY    33  30  91 S9        29.81S WCI  25
VIROQUA        CLOUDY    31  31  99 S9        29.80S WCI  23
BOSCOBEL       CLOUDY    33  29  85 S7        29.85F WCI  27
PRAIRIE DU CHI CLOUDY    32  29  86 S8        29.84S WCI  25
PLATTEVILLE    CLOUDY    31  31 100 SE6       29.83F VSB 3/4 WCI  25
$$

WIZ056-057-062-063-064-067-068-061000-
SOUTH CENTRAL WISCONSIN

CITY           SKY/WX    TMP DP  RH WIND       PRES   REMARKS
REEDSBURG      CLOUDY    30  29  96 S8        29.82F WCI  23
BARABOO/DELLS  CLOUDY    30  28  93 S12       29.82F FOG     WCI  21
LONE ROCK      CLOUDY    31  28  89 S9        29.85F WCI  23
MINERAL POINT  FOG       32  32 100 S3        29.82F VSB 1/4
MADISON        CLOUDY    30  30 100 MISG      29.84F FOG
MIDDLETON      NOT AVBL
WATERTOWN      CLOUDY    31  31 100 S5        29.86S FOG     WCI  26
MONROE         FOG       32  32 100 S6        29.84S VSB 1/4 WCI  26
JANESVILLE     FOG       32  32 100 SE5       29.85S VSB 1   WCI  27
$$

WIZ051-052-058>065-066-070>072-061000-
SOUTHEAST WISCONSIN

CITY           SKY/WX    TMP DP  RH WIND       PRES   REMARKS
MILWAUKEE      CLOUDY    37  33  85 W3        29.87F
WAUKESHA       CLOUDY    32  30  93 SE5       29.86F FOG     WCI  27
MILWAUKEE/TIMM CLOUDY    34  32  93 CALM      29.88F FOG
RACINE         CLOUDY    38  34  85 S10       29.88F WCI  31
BURLINGTON     CLOUDY    33  32  96 CALM      29.86F
KENOSHA        CLOUDY    37  33  85 SE5       29.86F WCI  33
FOND DU LAC    CLOUDY    34  30  85 S12       29.85F WCI  25
SHEBOYGAN      CLOUDY    38  34  85 S7        29.87F WCI  33
WEST BEND      CLOUDY    34  32  93 S3        29.87F
JUNEAU         CLOUDY    31  29  94 S10       29.87S FOG     WCI  22
$$

LSZ147-162-061000-
LAKE SUPERIOR

STATION/POSITION TIME  TEMP    WIND        PRES    WAVE
                       AIR SEA DIR/SP/G            HT/PER
                 (UTC) (F)     (DEG/KT/KT) (MB)    (FT/S)
DEVILS ISLAND    0900   39     170/ 13/ 18 1004.5F
PORT WING        0840   38     170/ 11/ 16 1003.7S
SAXON HARBOR     0900   39     180/ 10/ 20 1004.7
$$

LMZ867-665-643>646-061000-
LAKE MICHIGAN

STATION/POSITION TIME  TEMP    WIND        PRES    WAVE
                       AIR SEA DIR/SP/G            HT/PER
                 (UTC) (F)     (DEG/KT/KT) (MB)    (FT/S)
CHAMBERS ISLAND  0840   42     160/  8/ 14 1011.9S
NORTHPORT PIER   0840   43     150/ 11/ 16 1012.2S
SISTER BAY       0838   42     180/ 14/ 16   N/A
ALGOMA LAKESHORE 0851          190/ 21/ 25   N/A
KEWAUNEE LAKESHO 0842   40     170/ 19/ 22 1011.7F
SHEBOYGAN LAKESH 0900   39     160/ 16/ 18 1011.8F
PORT WASHINGTON  0840   39     180/ 10/ 13 1012.9F
MILWAUKEE LAKESH 0850   37     230/  5/  6   N/A
KENOSHA   LAKESH 0900   39     160/ 15/ 16 1011.2
$$

TC  - TEMPERATURE IN CELSIUS
VSB - VISIBILITY IN STATUTE MILES
WCI - WIND CHILL INDEX
HX  - HEAT INDEX





USA.gov is the U.S. government's official web portal to all federal, state and local government web resources and services.